Wind_Speed
34 34 34 34 34 35 36 36 37 38 39 40 42 43 43 44 45 46 47 47 48 48 49 50 51 51 51 51 52 53 55 56 57 57 59 61 63 64 65 66 68 69 70
33 33 33 34 34 35 35 37 38 39 40 41 42 43 44 45 46 47 47 48 49 49 50 51 51 52 52 53 55 56 58 60 61 61 62 64 66 67 69 70 71 72 74
33 33 33 33 34 35 36 37 38 39 40 41 43 44 45 46 46 47 48 49 49 50 51 52 52 53 55 56 58 59 61 63 64 65 65 67 69 70 71 72 73 74 75
33 33 33 34 35 36 37 37 39 40 41 43 44 45 45 46 47 48 49 50 51 51 52 53 54 56 57 59 61 62 64 65 67 68 69 70 71 72 74 74 74 74 74
33 33 34 35 36 36 36 38 39 41 42 44 44 45 46 47 48 49 50 51 52 52 53 55 57 59 60 62 63 65 66 68 70 71 72 72 72 73 74 74 74 73 72
32 32 33 34 35 36 37 38 40 42 43 44 44 45 47 48 49 51 52 52 53 54 55 58 60 61 63 64 66 67 69 71 72 73 74 74 73 74 74 73 72 70 67
31 32 33 34 35 37 38 40 41 42 43 44 45 47 48 49 50 52 53 54 54 56 58 60 62 64 65 66 68 69 71 72 74 75 75 74 74 73 72 70 68 66 63
32 33 34 35 36 38 39 41 42 43 44 45 46 48 49 50 52 52 53 55 56 59 61 63 64 65 67 69 70 71 72 72 74 75 75 74 72 70 69 67 65 62 60
32 33 34 36 37 39 40 41 42 43 45 46 47 48 50 51 52 53 55 57 59 61 63 65 67 68 70 72 72 72 72 72 74 74 73 70 68 67 66 64 62 60 56
32 33 35 36 38 39 40 41 42 44 45 46 47 49 50 52 53 55 58 59 61 63 65 67 68 70 71 72 73 73 73 73 73 71 68 67 66 64 62 61 58 55 52
33 34 35 37 38 39 40 41 43 44 46 47 48 50 52 53 55 57 60 62 63 65 67 68 69 71 71 72 73 74 74 73 71 68 66 64 63 61 58 56 54 51 47
34 35 36 37 38 40 41 42 43 45 46 47 49 51 52 54 56 59 61 64 66 68 69 69 70 71 72 72 73 73 72 70 68 65 63 61 59 56 54 52 49 45 41
34 35 36 37 38 39 40 42 44 45 47 48 50 51 53 56 58 61 63 66 68 69 69 70 70 71 71 71 71 69 68 66 63 62 60 58 55 52 50 46 42 38 33
34 35 36 38 39 40 41 43 44 46 47 49 51 53 55 57 60 63 65 67 68 69 69 69 70 70 70 69 67 65 63 62 61 59 57 53 50 47 44 40 36 32 28
35 36 38 39 40 41 42 44 45 47 49 51 52 55 57 59 62 65 66 68 69 69 69 69 69 68 67 66 64 62 60 59 58 56 52 48 45 41 37 33 30 26 24
37 38 39 40 41 42 43 45 46 48 50 52 54 56 59 61 64 66 68 69 69 70 70 69 67 67 66 63 61 59 57 56 54 50 47 43 39 35 32 28 25 23 21
38 39 40 41 42 43 45 46 48 49 51 53 55 58 61 64 66 68 69 69 69 70 69 67 66 65 63 60 58 55 54 52 49 45 41 37 34 30 28 24 22 20 18
39 40 41 42 43 44 46 48 49 51 52 55 58 61 63 66 68 68 69 69 68 68 67 66 64 62 59 57 54 52 50 47 44 39 36 33 30 27 24 22 20 18 16
40 41 42 43 44 46 47 49 51 53 55 57 60 63 65 67 68 68 69 69 68 66 65 63 61 58 56 54 52 49 46 42 39 35 33 30 27 24 22 20 18 17 15
41 42 43 44 46 47 49 51 53 55 57 60 62 64 66 67 67 68 69 69 67 64 62 59 57 55 53 51 48 45 41 38 35 33 30 27 24 22 20 18 16 15 13
42 43 44 46 48 49 51 53 55 57 60 62 64 66 68 68 68 69 69 67 64 61 58 55 54 52 49 46 43 40 37 35 33 30 27 24 22 20 18 16 15 13 12
43 44 45 47 49 51 53 55 57 60 62 64 66 67 68 69 69 69 67 63 60 57 54 53 50 47 45 42 39 37 34 32 30 26 23 21 20 18 16 15 13 12 11
44 45 47 49 51 53 55 57 60 62 64 66 67 67 68 68 68 66 62 58 56 53 51 48 45 43 40 38 36 34 31 29 26 23 21 20 18 16 15 14 13 12 11
45 47 49 51 53 54 57 59 62 64 65 66 67 67 67 66 64 61 58 54 51 49 46 44 41 39 37 36 33 31 29 26 23 21 19 18 16 15 14 13 13 12 11
47 49 50 52 54 57 59 62 63 64 65 66 66 66 65 63 61 57 53 50 47 45 42 40 38 36 35 33 31 29 26 23 21 19 18 17 16 15 14 14 13 13 12
48 50 52 54 57 59 61 63 64 65 65 65 65 64 62 60 57 53 49 46 43 41 40 38 36 34 32 30 28 26 23 21 20 18 17 16 15 15 14 14 14 13 13
Wind_Direction
273 273 273 275 276 277 278 279 281 283 285 288 290 291 293 294 295 296 298 299 301 301 302 302 303 302 303 303 303 303 302 302 302 302 301 301 300 299 298 297 297 296 295
272 273 274 275 276 277 279 281 282 284 287 289 291 292 293 295 296 297 299 300 301 302 302 303 303 303 303 303 303 303 303 303 303 303 302 301 301 300 299 298 297 297 296
272 273 274 275 276 278 280 282 284 286 288 289 291 293 294 295 297 298 299 301 302 302 303 303 303 303 304 304 304 304 304 304 304 303 303 302 301 300 300 299 299 298 297
273 274 275 276 278 280 282 284 286 287 289 290 292 293 295 296 298 299 300 301 302 303 303 304 304 304 305 305 305 305 304 304 304 304 304 303 302 302 301 300 299 299 298
274 276 277 278 280 281 283 285 286 288 290 292 293 294 295 297 298 300 301 302 302 303 304 304 305 305 305 305 305 305 305 305 305 305 305 304 303 302 301 301 300 300 299
276 277 278 280 281 283 284 286 288 290 291 292 293 294 296 298 299 300 301 302 303 303 304 304 305 305 305 305 306 306 306 306 306 305 305 305 304 303 302 302 302 302 301
277 279 280 281 282 283 285 287 289 291 292 293 295 296 297 299 300 301 301 302 303 304 304 305 305 306 305 305 306 306 307 306 306 306 306 306 305 304 304 304 304 304 303
278 279 281 282 284 285 287 289 290 291 293 294 296 297 298 299 300 300 301 303 303 304 305 306 306 306 306 306 306 307 307 307 306 306 306 306 306 305 305 305 304 304 304
279 281 282 283 285 287 288 290 291 292 294 295 296 297 298 299 300 301 302 303 304 305 306 306 306 306 306 306 307 307 307 307 307 307 307 306 306 306 306 305 305 305 305
281 282 284 286 287 289 290 291 292 293 295 296 297 298 299 300 301 302 303 304 305 306 306 307 306 307 307 307 307 308 308 307 307 307 306 306 306 306 306 306 306 306 306
283 285 286 288 289 290 291 292 293 294 295 297 298 299 300 301 301 303 304 305 306 306 307 307 307 307 308 308 308 308 308 308 308 307 306 306 306 305 305 305 305 305 305
284 286 288 289 290 291 292 293 294 295 297 298 299 300 301 302 303 304 305 306 307 307 307 307 308 308 308 309 308 308 308 308 308 308 308 307 306 306 305 305 304 304 303
286 287 289 290 291 292 293 294 296 297 298 299 300 301 302 303 304 305 306 307 308 308 308 309 309 309 309 309 309 309 309 309 309 309 309 308 307 306 305 305 304 303 301
286 288 290 292 292 293 294 296 296 298 299 300 301 303 304 305 306 307 308 308 309 309 309 310 310 310 310 310 310 310 310 310 310 310 309 308 307 306 305 304 303 302 300
287 290 292 293 293 294 296 297 298 299 301 302 303 304 305 306 308 309 309 310 310 310 310 311 311 311 311 311 310 310 310 310 311 311 309 308 307 306 305 304 303 301 298
289 291 292 293 294 296 297 298 300 301 302 303 305 306 307 309 309 310 310 311 311 311 311 311 311 311 311 311 311 311 310 311 311 311 309 308 308 306 305 304 302 300 297
290 292 293 294 296 297 298 299 301 302 304 305 306 308 309 310 311 311 311 312 312 311 311 312 312 312 312 311 311 311 311 311 311 310 309 309 307 306 304 302 300 299 295
291 293 294 296 297 298 299 301 302 304 305 306 308 309 310 311 312 312 312 312 312 312 311 311 312 312 311 311 311 311 311 311 311 310 309 308 307 305 302 299 298 296 294
293 294 295 297 298 299 301 302 304 305 307 308 309 310 311 312 312 312 312 313 312 312 311 311 311 311 311 311 311 311 311 310 310 309 308 307 305 303 300 297 294 293 289
293 295 296 298 299 301 303 304 306 307 308 309 310 311 311 312 312 312 313 313 312 312 311 311 311 311 311 311 310 310 310 309 308 308 306 305 302 300 297 294 290 288 282
294 296 297 299 301 303 304 306 307 308 309 310 311 311 311 312 312 313 313 312 312 311 311 311 311 311 311 311 310 310 309 308 307 306 304 301 299 297 293 290 287 281 275
295 297 299 301 303 304 306 307 308 309 310 311 311 312 312 313 313 313 313 312 311 310 310 310 311 311 311 311 310 310 308 307 305 303 301 299 297 294 289 286 282 275 270
297 299 301 302 304 305 307 308 309 310 311 312 312 312 313 313 313 313 312 311 311 310 310 311 311 311 311 311 311 310 308 306 303 300 299 297 294 289 284 282 277 271 266
298 300 302 303 305 306 308 309 310 311 312 312 313 313 313 314 314 313 312 311 311 311 311 311 311 311 310 311 310 309 307 305 301 298 296 294 290 284 280 277 272 267 261
299 301 303 305 306 307 309 310 311 312 313 313 314 314 314 314 314 313 312 311 311 311 311 311 311 310 310 310 309 308 305 303 300 296 293 290 284 279 276 273 269 263 255
301 303 304 306 307 308 309 310 311 312 313 313 314 314 314 314 314 312 312 311 312 311 311 310 310 310 310 310 309 306 303 301 299 295 292 287 282 277 273 270 265 257 251
Height
5715 5715 5714 5714 5713 5712 5711 5710 5709 5707 5705 5703 5700 5697 5694 5691 5687 5684 5680 5675 5671 5666 5662 5657 5652 5646 5641 5636 5631 5625 5620 5615 5612 5609 5600 5593 5586 5579 5573 5565 5559 5552 5545
5706 5706 5706 5705 5705 5704 5703 5701 5700 5698 5696 5693 5690 5687 5684 5681 5677 5673 5669 5664 5660 5655 5650 5645 5639 5634 5629 5623 5617 5611 5605 5599 5594 5591 5585 5576 5568 5560 5553 5546 5539 5531 5523
5698 5698 5698 5697 5696 5695 5694 5692 5691 5689 5686 5683 5681 5677 5674 5670 5666 5662 5658 5653 5648 5643 5638 5633 5627 5621 5615 5609 5603 5597 5590 5583 5576 5571 5566 5558 5549 5540 5532 5525 5517 5509 5500
5690 5690 5689 5688 5687 5686 5685 5683 5681 5679 5676 5674 5671 5667 5663 5659 5655 5651 5646 5642 5637 5631 5626 5620 5614 5607 5601 5595 5588 5581 5574 5566 5559 5552 5546 5539 5530 5520 5510 5503 5497 5488 5479
5681 5681 5680 5679 5678 5677 5676 5674 5672 5669 5667 5664 5660 5657 5653 5649 5644 5639 5635 5630 5625 5619 5613 5607 5600 5593 5586 5579 5572 5565 5557 5549 5541 5533 5526 5518 5510 5499 5490 5481 5473 5467 5459
5673 5672 5671 5670 5669 5668 5666 5664 5662 5659 5656 5653 5650 5646 5642 5637 5632 5627 5623 5618 5612 5606 5600 5594 5586 5579 5571 5563 5555 5547 5539 5530 5521 5513 5506 5497 5489 5478 5469 5459 5450 5444 5439
5665 5664 5663 5662 5660 5659 5657 5654 5652 5649 5646 5643 5639 5635 5630 5626 5620 5615 5610 5605 5599 5593 5586 5579 5572 5564 5555 5548 5540 5531 5522 5511 5501 5492 5485 5477 5467 5458 5448 5440 5431 5423 5416
5656 5655 5654 5653 5651 5649 5647 5644 5641 5638 5635 5632 5628 5623 5619 5614 5608 5603 5597 5592 5586 5579 5571 5564 5556 5548 5539 5530 5523 5515 5505 5494 5483 5474 5465 5457 5447 5438 5428 5420 5413 5406 5400
5647 5646 5645 5643 5641 5639 5637 5634 5631 5628 5624 5620 5616 5612 5607 5601 5595 5590 5584 5578 5572 5565 5557 5548 5539 5531 5522 5513 5504 5497 5488 5478 5466 5456 5446 5437 5428 5419 5410 5402 5395 5388 5383
5638 5637 5635 5633 5631 5629 5626 5623 5620 5617 5613 5609 5605 5599 5594 5589 5583 5576 5570 5564 5558 5551 5542 5533 5523 5514 5505 5494 5485 5476 5469 5460 5450 5440 5430 5421 5411 5403 5394 5386 5379 5372 5367
5628 5627 5625 5623 5621 5619 5616 5613 5609 5606 5602 5598 5593 5588 5582 5576 5570 5563 5555 5548 5541 5534 5526 5517 5507 5497 5487 5477 5467 5457 5448 5439 5431 5422 5413 5405 5396 5388 5380 5373 5365 5359 5353
5619 5617 5615 5613 5611 5608 5605 5602 5598 5594 5590 5585 5580 5575 5569 5562 5556 5548 5540 5532 5524 5516 5508 5499 5490 5480 5470 5460 5449 5439 5429 5420 5412 5403 5396 5388 5380 5373 5366 5359 5353 5347 5342
5609 5608 5605 5603 5600 5597 5594 5591 5587 5583 5578 5573 5568 5562 5556 5549 5541 5533 5525 5516 5507 5498 5490 5482 5473 5463 5453 5443 5432 5422 5412 5403 5395 5387 5379 5372 5365 5358 5352 5347 5341 5337 5333
5600 5598 5595 5593 5590 5587 5583 5579 5575 5571 5566 5561 5555 5549 5543 5535 5527 5518 5509 5500 5491 5482 5473 5465 5455 5445 5435 5426 5416 5406 5397 5388 5380 5372 5364 5357 5351 5345 5340 5335 5331 5328 5325
5590 5588 5585 5582 5579 5576 5572 5568 5563 5558 5553 5548 5542 5535 5529 5522 5512 5502 5493 5484 5475 5465 5456 5448 5439 5429 5419 5410 5401 5392 5383 5375 5366 5358 5351 5345 5339 5334 5330 5326 5322 5320 5318
5580 5577 5574 5571 5568 5565 5561 5556 5551 5546 5540 5534 5527 5521 5513 5505 5496 5487 5477 5467 5457 5447 5438 5430 5421 5411 5402 5393 5385 5377 5369 5361 5353 5346 5339 5334 5329 5325 5321 5318 5315 5313 5312
5569 5566 5563 5560 5557 5553 5549 5544 5540 5534 5527 5521 5513 5506 5498 5490 5480 5471 5461 5451 5441 5430 5421 5412 5404 5395 5386 5377 5370 5362 5355 5348 5341 5335 5329 5324 5320 5317 5314 5311 5309 5308 5307
5558 5555 5552 5549 5545 5541 5537 5532 5527 5521 5516 5508 5500 5491 5483 5474 5465 5454 5444 5435 5426 5415 5405 5396 5388 5379 5371 5363 5356 5349 5343 5336 5330 5325 5320 5316 5312 5309 5307 5305 5304 5303 5302
5547 5544 5541 5537 5533 5529 5524 5519 5513 5508 5501 5494 5486 5477 5468 5459 5449 5439 5428 5418 5409 5400 5390 5381 5372 5364 5357 5349 5343 5337 5331 5326 5321 5316 5312 5309 5305 5303 5301 5299 5298 5298 5297
5536 5532 5529 5525 5521 5516 5511 5506 5500 5493 5487 5479 5471 5462 5453 5443 5434 5424 5413 5402 5392 5384 5375 5367 5359 5351 5344 5337 5331 5325 5320 5316 5311 5308 5304 5301 5299 5297 5295 5294 5293 5293 5293
5524 5521 5517 5513 5508 5503 5498 5492 5485 5479 5471 5464 5455 5445 5435 5426 5417 5407 5397 5386 5376 5368 5360 5353 5346 5338 5331 5325 5319 5315 5310 5306 5303 5299 5297 5294 5292 5291 5289 5289 5288 5288 5288
5513 5509 5505 5500 5495 5490 5484 5478 5471 5464 5456 5447 5439 5429 5418 5409 5399 5390 5380 5370 5361 5353 5346 5339 5333 5326 5320 5314 5309 5305 5301 5297 5294 5292 5289 5288 5286 5285 5284 5284 5284 5284 5285
5501 5497 5492 5487 5482 5476 5470 5463 5456 5448 5440 5431 5421 5412 5403 5392 5382 5373 5364 5355 5347 5340 5333 5327 5321 5315 5309 5304 5300 5296 5292 5289 5286 5284 5283 5282 5280 5280 5279 5279 5279 5280 5281
5488 5484 5479 5474 5468 5462 5456 5448 5440 5432 5423 5414 5405 5395 5386 5376 5366 5357 5349 5341 5334 5327 5321 5315 5310 5305 5300 5296 5291 5288 5284 5282 5279 5278 5277 5276 5275 5274 5275 5275 5275 5276 5277
5475 5471 5466 5460 5454 5448 5441 5433 5425 5416 5407 5398 5389 5379 5369 5360 5351 5343 5335 5328 5322 5316 5310 5305 5300 5296 5291 5287 5283 5280 5277 5275 5273 5272 5271 5270 5269 5269 5270 5270 5271 5272 5273
5462 5457 5452 5446 5440 5433 5425 5417 5409 5400 5391 5382 5373 5363 5354 5345 5337 5329 5323 5316 5310 5305 5300 5295 5291 5286 5282 5279 5275 5272 5270 5268 5266 5265 5265 5264 5264 5264 5265 5265 5266 5267 5269